Change the Weather History Date:

Tuesday, November 30, 2010

  Actual Average Record
Temperature  
Mean Temperature 16 °F 18 °F  
Max Temperature 20 °F 26 °F 49 °F (2009)
Min Temperature 11 °F 9 °F -30 °F (1985)
Degree Days  
Heating Degree Days 49 47  
Month to date heating degree days 1145 1168  
Since 1 July heating degree days 1975 2199  
Cooling Degree Days 0 0  
Month to date cooling degree days 0 0  
Year to date cooling degree days 492 379  
Moisture  
Dew Point 12 °F    
Average Humidity 86    
Maximum Humidity 92    
Minimum Humidity 80    
Precipitation  
Precipitation 0.02 in 0.02 in 0.12 in (2001)
Month to date precipitation 0.58 0.95  
Year to date precipitation 27.05 20.20  
Snow  
Snow 1.20 in 0.30 in 1.80 in (2001)
Month to date snowfall 7.4 7.7  
Since 1 July snowfall 7.4 9.2  
Since 1 September snowfall 7.4 9.2  
Snow Depth 6.00 in    
Sea Level Pressure  
Sea Level Pressure 29.94 in    
Wind  
Wind Speed 24 mph (NNW)    
Max Wind Speed 33 mph    
Max Gust Speed 41 mph    
Visibility 3 miles    
Events Snow    
T = Trace of Precipitation, MM = Missing Value Source: NWS Daily Summary

Daily Weather History Graph

Daily Weather History Graph

Search for Another Location

Airport or City:

Trip Planner

Search our weather history database for the weather conditions in past years. The results will help you decide how hot, cold, wet, or windy it might be!

Date:

Astronomy

Nov. 30, 2010 Rise Set
Actual Time 7:56 AM CST 4:38 PM CST
Civil Twilight 7:20 AM CST 5:13 PM CST
Nautical Twilight 6:41 AM CST 5:52 PM CST
Astronomical Twilight 6:04 AM CST 6:30 PM CST
Moon 1:52 AM CST (11/30) 1:28 PM CST (11/30)
Length of Visible Light 9h 53m
Length of Day
8h 42m
Waning Crescent, 29% of the Moon is Illuminated
Nov 30
Waning Crescent
Dec 5
New
Dec 13
First Quarter
Dec 21
Full
Dec 27
Last Quarter

Hourly Weather History & Observations

Time (CST) Temp. Windchill Dew Point Humidity Pressure Visibility Wind Dir Wind Speed Gust Speed Precip Events Conditions
12:53 AM 19.0 °F 1.0 °F 17.1 °F 92% 29.91 in 2.0 mi NNW 26.5 mph 33.4 mph 0.00 in Snow Light Snow
1:16 AM 19.4 °F 2.5 °F 15.8 °F 86% 29.85 in 1.8 mi NNW 23.0 mph 33.4 mph 0.00 in Snow Light Snow
1:27 AM 19.4 °F 1.8 °F 15.8 °F 86% 29.85 in 1.8 mi NNW 25.3 mph 34.5 mph 0.00 in Snow Light Snow
1:49 AM 19.4 °F 1.8 °F 15.8 °F 86% 29.85 in 1.2 mi NNW 25.3 mph 33.4 mph 0.00 in Snow Light Snow
1:53 AM 19.0 °F 0.6 °F 16.0 °F 88% 29.91 in 1.2 mi NNW 27.6 mph 32.2 mph 0.00 in Snow Light Snow
2:02 AM 19.4 °F 1.1 °F 15.8 °F 86% 29.86 in 1.0 mi NNW 27.6 mph 36.8 mph 0.00 in Snow Light Snow
2:12 AM 19.4 °F 2.1 °F 17.6 °F 93% 29.86 in 1.2 mi NNW 24.2 mph 31.1 mph N/A Snow Light Snow
2:28 AM 19.4 °F 0.5 °F 17.6 °F 93% 29.86 in 1.2 mi NNW 29.9 mph 39.1 mph 0.01 in Snow Light Snow
2:53 AM 19.4 °F 1.8 °F 15.8 °F 86% 29.87 in 1.2 mi NNW 25.3 mph 36.8 mph N/A Snow Light Snow
3:29 AM 17.6 °F -0.3 °F 15.8 °F 93% 29.86 in 2.0 mi NNW 24.2 mph 35.7 mph 0.00 in Snow Light Snow
3:53 AM 18.0 °F -1.7 °F 15.1 °F 88% 29.92 in 1.8 mi NNW 31.1 mph 39.1 mph 0.01 in Snow Light Snow
4:53 AM 18.0 °F -1.1 °F 15.1 °F 88% 29.91 in 1.5 mi NNW 28.8 mph 35.7 mph 0.00 in Snow Light Snow
5:50 AM 15.8 °F -3.7 °F 12.2 °F 86% 29.87 in 2.0 mi NNW 27.6 mph 38.0 mph 0.00 in Snow Light Snow
5:51 AM 16.0 °F -4.1 °F 12.9 °F 88% 29.93 in 2.0 mi NNW 29.9 mph 38.0 mph 0.00 in Snow Light Snow
6:07 AM 15.8 °F -4.4 °F 12.2 °F 86% 29.88 in 3.0 mi NNW 29.9 mph 39.1 mph 0.00 in Snow Light Snow
6:19 AM 15.8 °F -4.1 °F 12.2 °F 86% 29.88 in 2.0 mi NNW 28.8 mph 36.8 mph 0.00 in Snow Light Snow
6:53 AM 16.0 °F -3.5 °F 12.9 °F 88% 29.94 in 2.0 mi NW 27.6 mph 35.7 mph 0.00 in Snow Light Snow
7:53 AM 15.1 °F -3.7 °F 12.0 °F 88% 29.94 in 2.0 mi NW 24.2 mph 35.7 mph 0.00 in Snow Light Snow
8:25 AM 15.8 °F -2.3 °F 10.4 °F 79% 29.89 in 1.0 mi NW 23.0 mph 38.0 mph 0.00 in Snow Light Snow
8:53 AM 15.1 °F -2.5 °F 12.0 °F 88% 29.94 in 0.5 mi NNW 20.7 mph 34.5 mph 0.00 in Snow Light Snow
9:53 AM 14.0 °F -5.8 °F 10.9 °F 88% 29.95 in 0.5 mi NNW 26.5 mph 35.7 mph 0.00 in Snow Light Snow
10:39 AM 15.8 °F -3.1 °F 10.4 °F 79% 29.89 in 0.8 mi NW 25.3 mph 33.4 mph 0.00 in Snow Light Snow
10:53 AM 15.1 °F -4.7 °F 10.9 °F 84% 29.94 in 0.8 mi NNW 27.6 mph 38.0 mph 0.00 in Snow Light Snow
11:53 AM 15.1 °F -4.4 °F 10.9 °F 84% 29.93 in 0.8 mi NNW 26.5 mph 40.3 mph 0.00 in Snow Blowing Snow
12:06 PM 15.8 °F -2.7 °F 10.4 °F 79% 29.88 in 1.5 mi NW 24.2 mph 36.8 mph N/A Snow Blowing Snow
12:10 PM 15.8 °F -3.4 °F 12.2 °F 86% 29.88 in 0.8 mi NW 26.5 mph 34.5 mph N/A Snow Blowing Snow
12:53 PM 16.0 °F -2.8 °F 10.9 °F 81% 29.93 in 0.8 mi NNW 25.3 mph 34.5 mph 0.00 in Snow Light Snow
1:42 PM 17.6 °F -0.6 °F 10.4 °F 73% 29.89 in 2.0 mi NNW 25.3 mph 32.2 mph 0.00 in Snow Blowing Snow
1:53 PM 16.0 °F -1.3 °F 10.9 °F 81% 29.94 in 3.0 mi NW 20.7 mph 32.2 mph 0.00 in Snow Blowing Snow
2:17 PM 15.8 °F -2.7 °F 10.4 °F 79% 29.89 in 1.8 mi NW 24.2 mph 32.2 mph N/A Snow Blowing Snow
2:53 PM 15.1 °F -3.7 °F 10.9 °F 84% 29.96 in 1.0 mi NW 24.2 mph 32.2 mph N/A Snow Blowing Snow
3:53 PM 14.0 °F -4.7 °F 10.0 °F 84% 29.99 in 1.0 mi NW 23.0 mph 31.1 mph 0.00 in Snow Light Snow
4:53 PM 12.9 °F -3.9 °F 9.0 °F 84% 30.01 in 9.0 mi NW 17.3 mph - 0.00 in Snow Blowing Snow
5:53 PM 12.9 °F -3.9 °F 8.1 °F 81% 30.02 in 10.0 mi NW 17.3 mph - N/A   Overcast
6:53 PM 12.9 °F -2.2 °F 9.0 °F 84% 30.02 in 10.0 mi NNW 13.8 mph - 0.00 in   Overcast
7:23 PM 12.2 °F -5.3 °F 8.6 °F 85% 29.97 in 6.0 mi NNW 18.4 mph 24.2 mph 0.00 in Snow Light Snow
7:50 PM 12.2 °F -7.1 °F 8.6 °F 85% 29.97 in 8.0 mi NNW 23.0 mph 27.6 mph 0.00 in Snow Light Snow
7:53 PM 12.9 °F -5.3 °F 9.0 °F 84% 30.03 in 7.0 mi NNW 20.7 mph 27.6 mph 0.00 in Snow Light Snow
8:53 PM 12.9 °F -6.1 °F 9.0 °F 84% 30.04 in 4.0 mi NNW 23.0 mph - 0.00 in Snow Light Snow
9:08 PM 12.2 °F -5.8 °F 8.6 °F 85% 29.98 in 3.0 mi NNW 19.6 mph 26.5 mph 0.00 in Snow Light Snow
9:53 PM 12.0 °F -5.1 °F 9.0 °F 88% 30.05 in 3.0 mi NNW 17.3 mph 26.5 mph 0.00 in Snow Light Snow
10:18 PM 12.2 °F -3.7 °F 8.6 °F 85% 29.99 in 2.5 mi NNW 15.0 mph 24.2 mph 0.00 in Snow Light Snow
10:33 PM 12.2 °F -4.8 °F 8.6 °F 85% 29.99 in 5.0 mi NNW 17.3 mph 31.1 mph 0.00 in Snow Light Snow
10:53 PM 10.9 °F -7.9 °F 8.1 °F 88% 30.05 in 4.0 mi NNW 20.7 mph 27.6 mph 0.00 in Snow Light Snow
11:22 PM 10.4 °F -7.2 °F 6.8 °F 85% 29.99 in 8.0 mi NNW 17.3 mph 25.3 mph 0.00 in Snow Light Snow
11:37 PM 10.4 °F -7.2 °F 8.6 °F 92% 30.00 in 9.0 mi NNW 17.3 mph - 0.00 in   Overcast
11:48 PM 10.4 °F -6.0 °F 8.6 °F 92% 30.00 in 9.0 mi NNW 15.0 mph 23.0 mph 0.00 in Snow Light Snow
11:53 PM 10.9 °F -7.0 °F 8.1 °F 88% 30.06 in 9.0 mi NNW 18.4 mph 24.2 mph 0.00 in Snow Light Snow